Stations météo

réclame
Mon MeteoGroup
Europlatform, Pays-Bas (6321): Température de l'air & dewpoint: 15.07.2019 02:00:00 - 21.07.2019 02:00:00 (CEST)Europlatform, Pays-Bas (6321): water temperature: 15.07.2019 02:00:00 - 21.07.2019 02:00:00 (CEST)Europlatform, Pays-Bas (6321): Vitesse du vent & gusts: 15.07.2019 02:00:00 - 21.07.2019 02:00:00 (CEST)Europlatform, Pays-Bas (6321): Direction du vent: 15.07.2019 02:00:00 - 21.07.2019 02:00:00 (CEST)Europlatform, Pays-Bas (6321): reduced air pressure: 15.07.2019 02:00:00 - 21.07.2019 02:00:00 (CEST)Europlatform, Pays-Bas (6321): visibility: 15.07.2019 02:00:00 - 21.07.2019 02:00:00 (CEST)
Date & Time tt [°C] td [°C] tw [°C] ff [km/h] ff [knt] fx [km/h] fx [knt] dd ppp [hPa] vv [km]
21.07.2019 02:00:00 18,5 15,5 16,0 21 11 25 14 WSW 1014,8 10
21.07.2019 01:00:00 18,3 16,2 16,0 29 16 40 21 WSW 1014,1 10
21.07.2019 00:00:00 18,8 15,6 16,0 34 18 43 23 SW 1013,8 10
20.07.2019 23:00:00 18,8 15,6 16,0 41 22 50 27 SW 1013,0 10
20.07.2019 22:00:00 18,6 15,9 16,0 44 24 50 27 SW 1012,2 10
20.07.2019 21:00:00 18,3 15,7 16,0 50 27 54 29 SSW 1011,3 10
20.07.2019 20:00:00 18,4 15,5 16,0 44 24 61 33 SSW 1010,7 10
20.07.2019 19:00:00 18,5 15,2 16,0 54 29 61 33 SSW 1010,5 10
20.07.2019 18:00:00 18,6 15,6 16,0 52 28 58 31 SSW 1010,1 10
20.07.2019 17:00:00 18,4 15,6 16,0 48 26 54 29 SSW 1009,6 10
20.07.2019 16:00:00 18,7 16,3 16,0 42 23 47 25 SSW 1009,2 10
20.07.2019 15:00:00 18,7 16,8 16,0 42 23 47 25 SSW 1009,3 10
20.07.2019 14:00:00 19,2 17,1 16,0 39 21 43 23 S 1008,8 10
20.07.2019 13:00:00 19,1 16,8 16,0 31 17 40 21 S 1008,3 10
20.07.2019 12:00:00 18,6 16,5 16,0 39 21 43 23 S 1008,3 10
20.07.2019 11:00:00 18,5 16,4 16,0 39 21 40 21 S 1008,2 10
20.07.2019 10:00:00 18,3 16,3 16,0 28 15 40 21 S 1007,8 10
20.07.2019 09:00:00 18,3 16,0 16,0 37 20 43 23 SSE 1008,2 10
20.07.2019 08:00:00 17,1 15,5 16,0 28 15 29 16 S 1007,7 5
20.07.2019 07:00:00 17,0 15,9 15,8 26 14 32 18 SSW 1007,9 4,4
20.07.2019 06:00:00 17,1 15,7 15,8 13 7 32 18 WSW 1007,9 10
20.07.2019 05:00:00 16,6 15,5 16,0 29 16 43 23 SW 1009,2 10
20.07.2019 04:00:00 19,1 15,2 16,0 28 15 32 18 SE 1008,2 10
20.07.2019 03:00:00 18,7 16,0 16,0 26 14 25 14 ESE 1009,2 10
20.07.2019 02:00:00 19,0 15,7 16,0 26 14 29 16 SE 1010,0 10
20.07.2019 01:00:00 18,7 16,0 16,0 26 14 29 16 SE 1010,8 10
20.07.2019 00:00:00 18,6 15,9 16,0 29 16 29 16 SE 1011,1 10
19.07.2019 23:00:00 18,6 15,6 16,0 21 11 29 16 SSE 1011,7 10
19.07.2019 22:00:00 18,7 15,1 16,0 26 14 29 16 S 1011,8 10
19.07.2019 21:00:00 18,3 14,3 16,0 18 10 29 16 S 1012,0 10
19.07.2019 20:00:00 16,6 15,9 16,0 31 17 43 23 SSW 1012,8 3,9
19.07.2019 19:00:00 17,8 14,0 16,0 26 14 36 19 SSW 1013,2 10
19.07.2019 18:00:00 17,9 13,3 15,7 24 13 29 16 SSW 1013,1 10
19.07.2019 17:00:00 17,8 13,9 16,0 22 12 25 14 SSW 1013,3 10
19.07.2019 16:00:00 17,9 14,5 16,0 22 12 32 18 SSW 1013,3 10
19.07.2019 15:00:00 17,9 15,3 16,0 22 12 29 16 SSW 1013,8 10
19.07.2019 14:00:00 17,9 13,9 16,0 24 13 29 16 SSW 1013,9 10
19.07.2019 13:00:00 18,1 13,7 16,0 21 11 22 12 SSW 1013,6 10
19.07.2019 12:00:00 17,6 14,1 16,0 15 8 22 12 SW 1013,5 10
19.07.2019 11:00:00 17,8 14,0 16,0 21 11 22 12 SSW 1013,5 10
19.07.2019 10:00:00 18,1 14,0 16,0 9 5 11 6 S 1013,2 10
19.07.2019 09:00:00 18,4 15,0 16,0 2 1 7 4 S 1013,0 10
19.07.2019 08:00:00 17,8 15,5 16,0 8 4 11 6 SW 1012,8 10
19.07.2019 07:00:00 18,7 14,6 16,0 11 6 14 8 WNW 1012,4 10
19.07.2019 06:00:00 17,2 16,1 16,0 9 5 11 6 WSW 1012,4 10
19.07.2019 05:00:00 17,3 16,4 16,0 11 6 14 8 WSW 1012,0 10
19.07.2019 04:00:00 17,4 16,5 16,0 11 6 18 10 SW 1012,2 10
19.07.2019 03:00:00 17,6 16,5 16,0 16 9 22 12 SW 1012,2 10
19.07.2019 02:00:00 17,6 16,4 16,0 18 10 22 12 SSW 1012,0 10
19.07.2019 01:00:00 17,7 16,3 16,0 21 11 25 14 SW 1011,9 10
19.07.2019 00:00:00 17,8 16,3 16,0 22 12 29 16 SW 1011,8 10
18.07.2019 23:00:00 17,9 16,3 16,0 22 12 32 18 SW 1011,8 10
18.07.2019 22:00:00 17,8 15,9 16,0 31 17 40 21 SW 1011,5 10
18.07.2019 21:00:00 18,0 15,7 16,0 37 20 43 23 SW 1011,0 10
18.07.2019 20:00:00 17,9 16,3 16,0 39 21 47 25 SW 1010,7 10
18.07.2019 19:00:00 18,0 16,0 16,0 37 20 47 25 SW 1010,4 10
18.07.2019 18:00:00 17,7 16,4 16,0 42 23 47 25 SSW 1010,2 9
18.07.2019 17:00:00 16,9 16,4 16,0 46 25 50 27 SSW 1010,1 3,7
18.07.2019 16:00:00 17,3 16,0 16,0 44 24 50 27 SSW 1010,6 10
18.07.2019 15:00:00 17,5 15,8 16,0 39 21 43 23 SSW 1010,8 10
18.07.2019 14:00:00 17,6 14,9 16,0 35 19 40 21 SSW 1010,8 10
18.07.2019 13:00:00 17,6 15,9 16,0 26 14 32 18 SSW 1010,5 10
18.07.2019 12:00:00 17,5 15,6 16,0 31 17 36 19 SSW 1010,6 10
18.07.2019 11:00:00 17,5 15,0 16,0 28 15 36 19 SSW 1010,3 10
18.07.2019 10:00:00 17,2 14,9 16,0 34 18 36 19 SSW 1010,2 10
18.07.2019 09:00:00 17,0 14,8 16,0 34 18 40 21 SW 1010,0 10
18.07.2019 08:00:00 17,2 14,7 16,0 34 18 40 21 SSW 1010,2 10
18.07.2019 07:00:00 17,3 14,7 16,0 29 16 40 21 SSW 1010,1 10
18.07.2019 06:00:00 17,4 15,1 16,0 28 15 29 16 SSW 1010,2 10
18.07.2019 05:00:00 17,4 15,0 16,0 28 15 29 16 SSW 1010,3 10
18.07.2019 04:00:00 17,8 14,0 16,0 18 10 22 12 SSW 1010,5 10
18.07.2019 03:00:00 18,5 15,8 16,0 16 9 25 14 S 1010,9 10
18.07.2019 02:00:00 19,1 15,8 16,0 26 14 29 16 ESE 1011,2 10
18.07.2019 01:00:00 19,2 15,6 16,0 26 14 29 16 ESE 1011,5 10
18.07.2019 00:00:00 18,8 15,6 16,0 24 13 25 14 E 1011,8 10
17.07.2019 23:00:00 18,6 14,7 16,0 22 12 22 12 E 1012,1 10
17.07.2019 22:00:00 18,4 14,3 16,0 18 10 18 10 E 1012,4 10
17.07.2019 21:00:00 18,2 14,3 16,0 16 9 18 10 E 1012,8 10
17.07.2019 20:00:00 17,9 14,5 16,0 13 7 14 8 E 1013,1 10
17.07.2019 19:00:00 17,9 14,3 16,0 5 3 7 4 E 1013,5 10
17.07.2019 18:00:00 18,0 13,7 15,0 5 3 7 4 E 1014,0 10
17.07.2019 17:00:00 18,8 14,0 16,0 2 1 7 4 S 1014,7 10
17.07.2019 16:00:00 17,9 14,4 15,0 8 4 11 6 SSW 1015,2 10
17.07.2019 15:00:00 17,7 14,7 16,0 11 6 11 6 SSW 1015,5 10
17.07.2019 14:00:00 17,6 15,0 16,0 11 6 14 8 S 1015,8 10
17.07.2019 13:00:00 17,6 14,5 16,0 13 7 - - S 1016,2 10
17.07.2019 12:00:00 - - 16,0 16 9 18 10 SSE 1016,2 10
17.07.2019 11:00:00 17,6 13,2 15,5 15 8 14 8 SSE 1016,2 28
17.07.2019 10:00:00 17,5 13,3 16,0 13 7 14 8 SSE 1016,4 10
17.07.2019 09:00:00 17,0 12,7 16,0 13 7 11 6 SE 1016,2 10
17.07.2019 08:00:00 16,7 13,1 15,0 11 6 11 6 SE 1016,3 10
17.07.2019 07:00:00 16,5 13,4 15,0 9 5 11 6 ESE 1016,3 10
17.07.2019 06:00:00 16,4 13,7 15,0 8 4 7 4 E 1016,5 10
17.07.2019 05:00:00 16,3 13,7 15,0 2 1 4 2 SE 1016,6 10
17.07.2019 04:00:00 16,1 13,8 16,0 2 1 4 2 - 1016,6 10
17.07.2019 03:00:00 16,0 13,8 16,0 0 0 4 2 N 1017,3 10
17.07.2019 02:00:00 16,0 13,9 16,0 2 1 4 2 NE 1017,9 10
17.07.2019 01:00:00 16,2 13,8 16,0 5 3 7 4 NNE 1017,8 10
17.07.2019 00:00:00 16,3 14,0 16,0 8 4 7 4 N 1018,0 10
16.07.2019 23:00:00 16,5 14,1 16,0 9 5 11 6 NNW 1018,0 10
16.07.2019 22:00:00 16,8 14,1 16,0 11 6 11 6 WNW 1018,1 10
16.07.2019 21:00:00 17,3 13,8 15,0 8 4 11 6 W 1018,0 10
16.07.2019 20:00:00 17,7 13,9 15,0 8 4 11 6 W 1018,1 10
16.07.2019 19:00:00 18,7 13,3 15,0 5 3 11 6 W 1018,1 10
16.07.2019 18:00:00 18,1 13,2 15,0 13 7 14 8 W 1018,6 10
16.07.2019 17:00:00 18,6 12,9 15,0 9 5 18 10 W 1018,8 10
16.07.2019 16:00:00 - 13,5 15,0 16 9 18 10 W 1019,0 10
16.07.2019 15:00:00 56,3 13,3 15,0 11 6 18 10 W 1019,2 10
16.07.2019 14:00:00 -18,7 -18,7 15,0 15 8 18 10 W 1019,6 10
16.07.2019 13:00:00 17,0 13,0 15,0 18 10 22 12 WSW 1019,5 10
16.07.2019 12:00:00 16,9 12,4 15,0 16 9 18 10 W 1019,6 10
16.07.2019 11:00:00 16,0 12,4 15,0 18 10 22 12 WSW 1020,0 10
16.07.2019 10:00:00 15,9 12,0 15,0 13 7 14 8 WSW 1020,1 10
16.07.2019 09:00:00 15,7 11,4 15,0 13 7 14 8 W 1020,1 10
16.07.2019 08:00:00 15,4 11,2 15,0 5 3 11 6 WNW 1020,0 10
16.07.2019 07:00:00 14,8 10,5 15,0 9 5 18 10 NNW 1019,9 10
16.07.2019 06:00:00 14,9 10,4 15,0 15 8 18 10 NNW 1020,0 10
16.07.2019 05:00:00 15,0 10,1 15,0 16 9 22 12 NNW 1019,9 10
16.07.2019 04:00:00 14,9 9,3 15,0 13 7 14 8 NW 1020,3 10
16.07.2019 03:00:00 14,9 9,5 15,0 11 6 18 10 NW 1020,6 10
16.07.2019 02:00:00 14,9 9,4 15,0 13 7 22 12 NNW 1020,9 10
16.07.2019 01:00:00 14,9 9,3 15,0 16 9 22 12 NW 1020,9 10
16.07.2019 00:00:00 14,9 9,3 15,0 11 6 22 12 NNW 1021,2 10
15.07.2019 23:00:00 15,1 9,5 15,0 8 4 22 12 N 1021,2 10
15.07.2019 22:00:00 15,2 9,4 15,0 13 7 22 12 NNW 1021,2 10
15.07.2019 21:00:00 15,2 9,8 15,0 18 10 25 14 N 1021,1 10
15.07.2019 20:00:00 15,4 9,5 15,0 18 10 25 14 NW 1021,2 49
15.07.2019 19:00:00 15,2 10,9 15,0 24 13 25 14 NNW 1021,3 10
15.07.2019 18:00:00 15,3 10,4 15,0 22 12 25 14 NNW 1021,7 10
15.07.2019 17:00:00 15,4 11,1 15,0 22 12 25 14 NW 1022,1 10
15.07.2019 16:00:00 15,0 11,4 15,0 29 16 29 16 NW 1022,0 10
15.07.2019 15:00:00 14,2 12,0 15,0 16 9 25 14 N 1022,1 10
15.07.2019 14:00:00 14,6 11,3 15,0 24 13 25 14 NNW 1022,0 10
15.07.2019 13:00:00 14,9 10,1 15,0 18 10 29 16 NNW 1021,9 10
15.07.2019 12:00:00 14,4 10,9 15,0 22 12 22 12 NNW 1022,0 10
15.07.2019 11:00:00 14,5 10,4 15,0 15 8 25 14 NNW 1021,9 10
15.07.2019 10:00:00 14,8 9,0 15,0 18 10 25 14 N 1021,8 10
15.07.2019 09:00:00 14,6 9,0 15,0 16 9 29 16 N 1021,6 10
15.07.2019 08:00:00 14,4 8,3 15,0 22 12 29 16 NNW 1021,4 10
15.07.2019 07:00:00 14,5 9,0 15,0 21 11 29 16 NNW 1021,4 10
15.07.2019 06:00:00 14,4 9,2 15,0 22 12 29 16 NNW 1021,2 10
15.07.2019 05:00:00 14,7 10,2 15,0 26 14 29 16 NNW 1021,0 10
15.07.2019 04:00:00 14,3 10,8 15,0 28 15 29 16 N 1021,3 10
15.07.2019 03:00:00 14,4 11,3 15,0 24 13 29 16 N 1021,7 10
15.07.2019 02:00:00 13,9 12,2 15,0 26 14 29 16 N 1022,0 10

tt = Température de l'air
td = dewpoint
tw = water temperature
ff = Vitesse du vent
fx = gusts
dd = Direction du vent
ppp = reduced air pressure
vv = visibility

stations d'obs. à proximité